Main page
METAR-TAF:

METAR-TAF

Airports :

McMinnville Municipal Airport

McMinnville, Oregon, United States

latitude: 45-11-46N, longitude: 123-07-56W, elevation: 157 ft

Current weather observation

The report was made 19 minutes ago, at 17:53 UTC
Calm wind
Temperature 64°F
Humidity 64%
Pressure 30.06 in. Hg
Visibility: 10 miles
Overcast at a height of 3800 ft

METAR: KMMV 231753Z AUTO 00000KT 10SM OVC038 18/11 A3006 RMK AO2 SLP179 T01780106 10183 20106 53003

Time: 11:12 (18:12 UTC)


TAF: missing

Weather observations and forecasts of more than 4000 airports (METAR and TAF reports).

The available stations are represented by yellow and red dots on the map.

Hover mouse over dot to see the name of the station.

Then click to see weather observations and forecasts.

To change the map : click on the green buttons with a black cross to zoom in, on the green button with a dash to zoom out, or on the green arrows for adjacent maps.


METAR-TAF: